,,PA_Meas_PMT16A,,PR_Meas_QMR101_102,,RH_Meas_QMH101,,SR_Meas_QMS101,,TA_Meas_QMH101,,GenWind,,GenWind,
time,status,PA,status,PR,status,RH,status,SR,status,TA,status,DirAvg,status,SpdAvg,
2014-10-01, 00:00:05,VALID,917.867,VALID,0,VALID,97.0461,VALID,0,VALID,20.5999,VALID,21,VALID,0,
2014-10-01, 00:01:05,VALID,917.858,VALID,0,VALID,97.0613,VALID,0,VALID,20.5999,VALID,21,VALID,0,
2014-10-01, 00:02:05,VALID,917.837,VALID,0,VALID,97.0842,VALID,0,VALID,20.5609,VALID,21,VALID,0,
2014-10-01, 00:03:05,VALID,917.814,VALID,0,VALID,97.069,VALID,0,VALID,20.5609,VALID,21,VALID,0,
2014-10-01, 00:04:05,VALID,917.815,VALID,0,VALID,97.0766,VALID,0,VALID,20.5414,VALID,21,VALID,0,
2014-10-01, 00:05:05,VALID,917.768,VALID,0,VALID,97.0918,VALID,0,VALID,20.5609,VALID,21,VALID,0,
2014-10-01, 00:06:05,VALID,917.773,VALID,0,VALID,97.069,VALID,0,VALID,20.5414,VALID,21,VALID,0,
2014-10-01, 00:07:05,VALID,917.719,VALID,0,VALID,97.0842,VALID,0,VALID,20.5219,VALID,21,VALID,0,
2014-10-01, 00:08:05,VALID,917.687,VALID,0,VALID,97.0918,VALID,0,VALID,20.5024,VALID,21,VALID,0,
2014-10-01, 00:09:05,VALID,917.667,VALID,0,VALID,97.0918,VALID,0,VALID,20.5024,VALID,21,VALID,0,
2014-10-01, 00:10:05,VALID,917.671,VALID,0,VALID,97.0842,VALID,0,VALID,20.4829,VALID,21,VALID,0,
2014-10-01, 00:11:05,VALID,917.637,VALID,0,VALID,97.0994,VALID,0,VALID,20.5024,VALID,21,VALID,0,
2014-10-01, 00:12:05,VALID,917.604,VALID,0,VALID,97.1147,VALID,0,VALID,20.4829,VALID,21,VALID,0,
2014-10-01, 00:13:05,VALID,917.601,VALID,0,VALID,97.1223,VALID,0,VALID,20.4829,VALID,21,VALID,0,
2014-10-01, 00:14:05,VALID,917.602,VALID,0,VALID,97.0994,VALID,0,VALID,20.4439,VALID,21,VALID,0,
2014-10-01, 00:15:05,VALID,917.614,VALID,0,VALID,97.1376,VALID,0,VALID,20.4244,VALID,21,VALID,0,
2014-10-01, 00:16:05,VALID,917.578,VALID,0,VALID,97.1376,VALID,0,VALID,20.4049,VALID,21,VALID,0,
2014-10-01, 00:17:05,VALID,917.583,VALID,0,VALID,97.1528,VALID,0,VALID,20.3854,VALID,21,VALID,0,
2014-10-01, 00:18:05,VALID,917.548,VALID,0,VALID,97.1299,VALID,0,VALID,20.4049,VALID,20,VALID,0,
2014-10-01, 00:19:05,VALID,917.574,VALID,0,VALID,97.1452,VALID,0,VALID,20.4064,VALID,21,VALID,0,
2014-10-01, 00:20:05,VALID,917.577,VALID,0,VALID,97.1604,VALID,0.107441,VALID,20.3643,VALID,21,VALID,0,
2014-10-01, 00:21:05,VALID,917.572,VALID,0,VALID,97.1452,VALID,0,VALID,20.2879,VALID,21,VALID,0,
2014-10-01, 00:22:05,VALID,917.543,VALID,0,VALID,97.1604,VALID,0,VALID,20.2699,VALID,21,VALID,0,
2014-10-01, 00:23:04,VALID,917.556,VALID,0,VALID,97.1681,VALID,0,VALID,20.2489,VALID,21,VALID,0,
2014-10-01, 00:24:04,VALID,917.55,VALID,0,VALID,97.1604,VALID,0,VALID,20.2684,VALID,21,VALID,0,
2014-10-01, 00:25:04,VALID,917.533,VALID,0,VALID,97.1681,VALID,0,VALID,20.3074,VALID,21,VALID,0,
2014-10-01, 00:26:04,VALID,917.544,VALID,0,VALID,97.1681,VALID,0,VALID,20.3284,VALID,21,VALID,0,
2014-10-01, 00:27:04,VALID,917.558,VALID,0,VALID,97.1681,VALID,0,VALID,20.3269,VALID,21,VALID,0,
2014-10-01, 00:28:04,VALID,917.54,VALID,0,VALID,97.1757,VALID,0,VALID,20.3674,VALID,21,VALID,0,
2014-10-01, 00:29:04,VALID,917.54,VALID,0,VALID,97.1986,VALID,0,VALID,20.3674,VALID,21,VALID,0,
2014-10-01, 00:30:04,VALID,917.536,VALID,0,VALID,97.1909,VALID,0,VALID,20.3479,VALID,21,VALID,0,
2014-10-01, 00:31:04,VALID,917.513,VALID,0,VALID,97.1909,VALID,0,VALID,20.3269,VALID,21,VALID,0,
2014-10-01, 00:32:04,VALID,917.491,VALID,0,VALID,97.1909,VALID,0,VALID,20.3659,VALID,21,VALID,0,
2014-10-01, 00:33:04,VALID,917.491,VALID,0,VALID,97.1909,VALID,0,VALID,20.4064,VALID,21,VALID,0,
2014-10-01, 00:34:04,VALID,917.497,VALID,0,VALID,97.2138,VALID,0,VALID,20.4244,VALID,21,VALID,0,
2014-10-01, 00:35:04,VALID,917.481,VALID,0,VALID,97.2062,VALID,0.107441,VALID,20.4634,VALID,21,VALID,0,
2014-10-01, 00:36:04,VALID,917.477,VALID,0,VALID,97.1986,VALID,0.107441,VALID,20.4423,VALID,21,VALID,0,
2014-10-01, 00:37:04,VALID,917.509,VALID,0,VALID,97.1909,VALID,0.107441,VALID,20.5024,VALID,21,VALID,0,
2014-10-01, 00:38:04,VALID,917.507,VALID,0,VALID,97.2062,VALID,0.107441,VALID,20.5009,VALID,21,VALID,0,
2014-10-01, 00:39:04,VALID,917.494,VALID,0,VALID,97.2062,VALID,0,VALID,20.5009,VALID,21,VALID,0,
2014-10-01, 00:40:04,VALID,917.511,VALID,0,VALID,97.2062,VALID,0,VALID,20.5414,VALID,21,VALID,0,
2014-10-01, 00:41:04,VALID,917.529,VALID,0,VALID,97.2062,VALID,0,VALID,20.5399,VALID,21,VALID,0,
2014-10-01, 00:42:04,VALID,917.476,VALID,0,VALID,97.1986,VALID,0,VALID,20.5984,VALID,21,VALID,0,
2014-10-01, 00:43:04,VALID,917.494,VALID,0,VALID,97.1909,VALID,0,VALID,20.6585,VALID,21,VALID,0,
2014-10-01, 00:44:04,VALID,917.483,VALID,0,VALID,97.1986,VALID,0.107441,VALID,20.639,VALID,21,VALID,0,
2014-10-01, 00:45:04,VALID,917.456,VALID,0,VALID,97.2214,VALID,0.107441,VALID,20.6194,VALID,21,VALID,0,
2014-10-01, 00:46:04,VALID,917.464,VALID,0,VALID,97.2138,VALID,0,VALID,20.5984,VALID,21,VALID,0,
2014-10-01, 00:47:04,VALID,917.451,VALID,0,VALID,97.1986,VALID,0,VALID,20.6194,VALID,21,VALID,0,
2014-10-01, 00:48:04,VALID,917.458,VALID,0,VALID,97.2214,VALID,0.107441,VALID,20.5984,VALID,21,VALID,0,
2014-10-01, 00:49:04,VALID,917.464,VALID,0,VALID,97.2214,VALID,0.107441,VALID,20.5999,VALID,21,VALID,0,
2014-10-01, 00:50:04,VALID,917.459,VALID,0,VALID,97.229,VALID,0,VALID,20.5414,VALID,21,VALID,0,
2014-10-01, 00:51:04,VALID,917.458,VALID,0,VALID,97.229,VALID,0,VALID,20.5024,VALID,21,VALID,0,
2014-10-01, 00:52:04,VALID,917.473,VALID,0,VALID,97.2367,VALID,0,VALID,20.4845,VALID,21,VALID,0,
2014-10-01, 00:53:04,VALID,917.457,VALID,0,VALID,97.2367,VALID,0,VALID,20.4244,VALID,21,VALID,0,
2014-10-01, 00:54:04,VALID,917.438,VALID,0,VALID,97.2367,VALID,0,VALID,20.4049,VALID,21,VALID,0,
2014-10-01, 00:55:04,VALID,917.43,VALID,0,VALID,97.2443,VALID,0,VALID,20.4049,VALID,21,VALID,0,
2014-10-01, 00:56:04,VALID,917.394,VALID,0,VALID,97.229,VALID,0,VALID,20.4064,VALID,21,VALID,0,
2014-10-01, 00:57:04,VALID,917.38,VALID,0,VALID,97.2519,VALID,0,VALID,20.4064,VALID,21,VALID,0,
2014-10-01, 00:58:04,VALID,917.324,VALID,0,VALID,97.2443,VALID,0,VALID,20.3854,VALID,21,VALID,0,
2014-10-01, 00:59:04,VALID,917.367,VALID,0,VALID,97.2367,VALID,0,VALID,20.3869,VALID,21,VALID,0,
2014-10-01, 01:00:04,VALID,917.352,VALID,0,VALID,97.2367,VALID,0,VALID,20.3869,VALID,20,VALID,0,
2014-10-01, 01:01:04,VALID,917.376,VALID,0,VALID,97.2443,VALID,0,VALID,20.4049,VALID,21,VALID,0,
2014-10-01, 01:02:04,VALID,917.346,VALID,0,VALID,97.2214,VALID,0,VALID,20.4259,VALID,21,VALID,0,
2014-10-01, 01:03:04,VALID,917.341,VALID,0,VALID,97.2443,VALID,0,VALID,20.4454,VALID,21,VALID,0,
2014-10-01, 01:04:04,VALID,917.334,VALID,0,VALID,97.2443,VALID,0,VALID,20.465,VALID,21,VALID,0,
2014-10-01, 01:05:04,VALID,917.3,VALID,0,VALID,97.2367,VALID,0,VALID,20.4634,VALID,21,VALID,0,
2014-10-01, 01:06:04,VALID,917.282,VALID,0,VALID,97.2824,VALID,0.107441,VALID,20.4423,VALID,21,VALID,0,
2014-10-01, 01:07:04,VALID,917.221,VALID,0,VALID,97.2519,VALID,0,VALID,20.4634,VALID,21,VALID,0,
2014-10-01, 01:08:04,VALID,917.204,VALID,0,VALID,97.2367,VALID,0.107441,VALID,20.4813,VALID,21,VALID,0,
2014-10-01, 01:09:04,VALID,917.165,VALID,0,VALID,97.2519,VALID,0.107441,VALID,20.4813,VALID,21,VALID,0,
2014-10-01, 01:10:04,VALID,917.145,VALID,0,VALID,97.2595,VALID,0,VALID,20.4829,VALID,21,VALID,0,
2014-10-01, 01:11:04,VALID,917.13,VALID,0,VALID,97.2672,VALID,0,VALID,20.4439,VALID,21,VALID,0,
2014-10-01, 01:12:04,VALID,917.109,VALID,0,VALID,97.29,VALID,0,VALID,20.4033,VALID,21,VALID,0,
2014-10-01, 01:13:04,VALID,917.105,VALID,0,VALID,97.2672,VALID,0.107441,VALID,20.4049,VALID,21,VALID,0,
2014-10-01, 01:14:04,VALID,917.11,VALID,0,VALID,97.2748,VALID,0,VALID,20.3854,VALID,21,VALID,0,
2014-10-01, 01:15:04,VALID,917.094,VALID,0,VALID,97.2824,VALID,0,VALID,20.3854,VALID,21,VALID,0,
2014-10-01, 01:16:04,VALID,917.075,VALID,0,VALID,97.2672,VALID,0.107441,VALID,20.4049,VALID,21,VALID,0,
2014-10-01, 01:17:04,VALID,917.06,VALID,0,VALID,97.29,VALID,0,VALID,20.4049,VALID,21,VALID,0,
2014-10-01, 01:18:04,VALID,917.082,VALID,0,VALID,97.2672,VALID,0,VALID,20.4033,VALID,21,VALID,0,
2014-10-01, 01:19:04,VALID,917.054,VALID,0,VALID,97.29,VALID,0.107441,VALID,20.4618,VALID,21,VALID,0,
2014-10-01, 01:20:04,VALID,917.045,VALID,0,VALID,97.2672,VALID,0.107441,VALID,20.5204,VALID,21,VALID,0,
2014-10-01, 01:21:04,VALID,917.048,VALID,0,VALID,97.2595,VALID,0.107441,VALID,20.4813,VALID,21,VALID,0,
2014-10-01, 01:22:04,VALID,917.075,VALID,0,VALID,97.29,VALID,0.107441,VALID,20.4423,VALID,21,VALID,0,
2014-10-01, 01:23:04,VALID,917.033,VALID,0,VALID,97.2824,VALID,0,VALID,20.4244,VALID,21,VALID,0,
2014-10-01, 01:24:04,VALID,917.056,VALID,0,VALID,97.2824,VALID,0,VALID,20.4228,VALID,21,VALID,0,
2014-10-01, 01:25:04,VALID,917.017,VALID,0,VALID,97.2824,VALID,0.107441,VALID,20.4228,VALID,21,VALID,0,
2014-10-01, 01:26:04,VALID,917.032,VALID,0,VALID,97.2824,VALID,0.107441,VALID,20.4634,VALID,21,VALID,0,
2014-10-01, 01:27:04,VALID,917.023,VALID,0,VALID,97.2824,VALID,0.107441,VALID,20.4634,VALID,21,VALID,0,
2014-10-01, 01:28:04,VALID,917.01,VALID,0,VALID,97.29,VALID,0,VALID,20.4634,VALID,21,VALID,0,
2014-10-01, 01:29:04,VALID,916.978,VALID,0,VALID,97.29,VALID,0.107441,VALID,20.4423,VALID,21,VALID,0,
2014-10-01, 01:30:04,VALID,916.985,VALID,0,VALID,97.2977,VALID,0.107441,VALID,20.4423,VALID,21,VALID,0,
2014-10-01, 01:31:04,VALID,917.004,VALID,0,VALID,97.2824,VALID,0.107441,VALID,20.4423,VALID,21,VALID,0,
2014-10-01, 01:32:04,VALID,917.002,VALID,0,VALID,97.29,VALID,0.107441,VALID,20.4423,VALID,21,VALID,0,
2014-10-01, 01:33:04,VALID,916.982,VALID,0,VALID,97.2748,VALID,0.107441,VALID,20.4423,VALID,21,VALID,0,
2014-10-01, 01:34:04,VALID,917.028,VALID,0,VALID,97.2977,VALID,0.107441,VALID,20.4228,VALID,21,VALID,0,
2014-10-01, 01:35:04,VALID,917.014,VALID,0,VALID,97.29,VALID,0.107441,VALID,20.4423,VALID,21,VALID,0,
2014-10-01, 01:36:04,VALID,917.006,VALID,0,VALID,97.2977,VALID,0.107441,VALID,20.4423,VALID,21,VALID,0,
2014-10-01, 01:37:04,VALID,916.983,VALID,0,VALID,97.3053,VALID,0.107441,VALID,20.4228,VALID,21,VALID,0,
2014-10-01, 01:38:04,VALID,916.951,VALID,0,VALID,97.3053,VALID,0.214882,VALID,20.4018,VALID,21,VALID,0,
2014-10-01, 01:39:04,VALID,916.947,VALID,0,VALID,97.2977,VALID,0.107441,VALID,20.4423,VALID,21,VALID,0,
2014-10-01, 01:40:04,VALID,916.921,VALID,0,VALID,97.2977,VALID,0.107441,VALID,20.4228,VALID,21,VALID,0,
2014-10-01, 01:41:04,VALID,916.934,VALID,0,VALID,97.2977,VALID,0.107441,VALID,20.4213,VALID,21,VALID,0,
2014-10-01, 01:42:04,VALID,916.918,VALID,0,VALID,97.29,VALID,0.107441,VALID,20.4423,VALID,21,VALID,0,
2014-10-01, 01:43:04,VALID,916.883,VALID,0,VALID,97.29,VALID,0.107441,VALID,20.4423,VALID,21,VALID,0,
2014-10-01, 01:44:04,VALID,916.887,VALID,0,VALID,97.3129,VALID,0,VALID,20.4423,VALID,21,VALID,0,
2014-10-01, 01:45:04,VALID,916.883,VALID,0,VALID,97.2977,VALID,0.107441,VALID,20.4813,VALID,21,VALID,0,
2014-10-01, 01:46:04,VALID,916.868,VALID,0,VALID,97.2977,VALID,0.107441,VALID,20.5009,VALID,21,VALID,0,
2014-10-01, 01:47:04,VALID,916.853,VALID,0,VALID,97.2977,VALID,0,VALID,20.5204,VALID,21,VALID,0,
2014-10-01, 01:48:04,VALID,916.857,VALID,0,VALID,97.3129,VALID,0.107441,VALID,20.5009,VALID,21,VALID,0,
2014-10-01, 01:49:04,VALID,916.815,VALID,0,VALID,97.2977,VALID,0.107441,VALID,20.5204,VALID,21,VALID,0,
2014-10-01, 01:50:04,VALID,916.791,VALID,0,VALID,97.3205,VALID,0.214882,VALID,20.5009,VALID,43,VALID,0,
2014-10-01, 01:51:04,VALID,916.803,VALID,0,VALID,97.3129,VALID,0.107441,VALID,20.5009,VALID,165,VALID,0,
2014-10-01, 01:52:04,VALID,916.783,VALID,0,VALID,97.2977,VALID,0.107441,VALID,20.4813,VALID,167,VALID,0,
2014-10-01, 01:53:04,VALID,916.78,VALID,0,VALID,97.3129,VALID,0,VALID,20.4618,VALID,140,VALID,0,
2014-10-01, 01:54:04,VALID,916.808,VALID,0,VALID,97.2977,VALID,0.107441,VALID,20.4408,VALID,154,VALID,0,
2014-10-01, 01:55:04,VALID,916.811,VALID,0,VALID,97.3281,VALID,0.107441,VALID,20.4423,VALID,139,VALID,0.00234375,
2014-10-01, 01:56:04,VALID,916.785,VALID,0,VALID,97.351,VALID,0.107441,VALID,20.4618,VALID,140,VALID,0,
2014-10-01, 01:57:04,VALID,916.798,VALID,0,VALID,97.3358,VALID,0.107441,VALID,20.4423,VALID,130,VALID,0,
2014-10-01, 01:58:04,VALID,916.785,VALID,0,VALID,97.3205,VALID,0.107441,VALID,20.4018,VALID,139,VALID,0,
2014-10-01, 01:59:04,VALID,916.8,VALID,0,VALID,97.3205,VALID,0.107441,VALID,20.4033,VALID,140,VALID,0,
2014-10-01, 02:00:04,VALID,916.778,VALID,0,VALID,97.3281,VALID,0.214882,VALID,20.3823,VALID,144,VALID,0,
2014-10-01, 02:01:04,VALID,916.746,VALID,0,VALID,97.3434,VALID,0.107441,VALID,20.4228,VALID,144,VALID,0,
2014-10-01, 02:02:04,VALID,916.769,VALID,0,VALID,97.3281,VALID,0.107441,VALID,20.4033,VALID,141,VALID,0,
2014-10-01, 02:03:04,VALID,916.724,VALID,0,VALID,97.3434,VALID,0.107441,VALID,20.3838,VALID,143,VALID,0,
2014-10-01, 02:04:04,VALID,916.718,VALID,0,VALID,97.3434,VALID,0.214882,VALID,20.3838,VALID,167,VALID,0,
2014-10-01, 02:05:04,VALID,916.671,VALID,0,VALID,97.351,VALID,0,VALID,20.3854,VALID,167,VALID,0,
2014-10-01, 02:06:04,VALID,916.669,VALID,0,VALID,97.3281,VALID,0,VALID,20.3659,VALID,157,VALID,0,
2014-10-01, 02:07:04,VALID,916.615,VALID,0,VALID,97.3434,VALID,0,VALID,20.3659,VALID,167,VALID,0,
2014-10-01, 02:08:04,VALID,916.607,VALID,0,VALID,97.3434,VALID,0,VALID,20.3659,VALID,167,VALID,0,
2014-10-01, 02:09:04,VALID,916.589,VALID,0,VALID,97.351,VALID,0,VALID,20.3659,VALID,167,VALID,0,
2014-10-01, 02:10:04,VALID,916.562,VALID,0,VALID,97.3663,VALID,0,VALID,20.3659,VALID,167,VALID,0,
2014-10-01, 02:11:04,VALID,916.568,VALID,0,VALID,97.3434,VALID,0,VALID,20.3464,VALID,158,VALID,0,
2014-10-01, 02:12:04,VALID,916.551,VALID,0,VALID,97.351,VALID,0,VALID,20.3479,VALID,143,VALID,0,
2014-10-01, 02:13:04,VALID,916.514,VALID,0,VALID,97.3663,VALID,0,VALID,20.3074,VALID,143,VALID,0,
2014-10-01, 02:14:04,VALID,916.537,VALID,0,VALID,97.3739,VALID,0,VALID,20.3074,VALID,143,VALID,0,
2014-10-01, 02:15:04,VALID,916.548,VALID,0,VALID,97.3739,VALID,0,VALID,20.2879,VALID,143,VALID,0,
2014-10-01, 02:16:04,VALID,916.541,VALID,0,VALID,97.351,VALID,0,VALID,20.2684,VALID,143,VALID,0,
2014-10-01, 02:17:04,VALID,916.533,VALID,0,VALID,97.3739,VALID,0,VALID,20.2684,VALID,143,VALID,0,
2014-10-01, 02:18:04,VALID,916.552,VALID,0,VALID,97.3663,VALID,0,VALID,20.2879,VALID,143,VALID,0,
2014-10-01, 02:19:04,VALID,916.536,VALID,0,VALID,97.3663,VALID,0,VALID,20.2894,VALID,143,VALID,0,
2014-10-01, 02:20:04,VALID,916.54,VALID,0,VALID,97.3663,VALID,0,VALID,20.2668,VALID,143,VALID,0,
2014-10-01, 02:21:04,VALID,916.54,VALID,0,VALID,97.3663,VALID,0.107441,VALID,20.2473,VALID,143,VALID,0,
2014-10-01, 02:22:04,VALID,916.518,VALID,0,VALID,97.3739,VALID,0.107441,VALID,20.2879,VALID,143,VALID,0,
2014-10-01, 02:23:04,VALID,916.536,VALID,0,VALID,97.3739,VALID,0.107441,VALID,20.2473,VALID,143,VALID,0,
2014-10-01, 02:24:04,VALID,916.524,VALID,0,VALID,97.3815,VALID,0.107441,VALID,20.2278,VALID,143,VALID,0,
2014-10-01, 02:25:04,VALID,916.548,VALID,0,VALID,97.3815,VALID,0,VALID,20.1888,VALID,143,VALID,0,
2014-10-01, 02:26:04,VALID,916.552,VALID,0,VALID,97.3815,VALID,0.107441,VALID,20.1888,VALID,143,VALID,0,
2014-10-01, 02:27:04,VALID,916.568,VALID,0,VALID,97.3891,VALID,0.107441,VALID,20.1708,VALID,143,VALID,0,
2014-10-01, 02:28:04,VALID,916.575,VALID,0,VALID,97.3739,VALID,0.107441,VALID,20.1708,VALID,143,VALID,0,
2014-10-01, 02:29:04,VALID,916.618,VALID,0,VALID,97.3968,VALID,0.107441,VALID,20.1303,VALID,143,VALID,0,
2014-10-01, 02:30:04,VALID,916.581,VALID,0,VALID,97.3891,VALID,0.107441,VALID,20.1498,VALID,143,VALID,0,
2014-10-01, 02:31:04,VALID,916.553,VALID,0,VALID,97.3815,VALID,0.107441,VALID,20.1498,VALID,132,VALID,0,
2014-10-01, 02:32:04,VALID,916.582,VALID,0,VALID,97.3968,VALID,0,VALID,20.1498,VALID,132,VALID,0,
2014-10-01, 02:33:04,VALID,916.603,VALID,0,VALID,97.3891,VALID,0.107441,VALID,20.1108,VALID,132,VALID,0,
2014-10-01, 02:34:04,VALID,916.592,VALID,0,VALID,97.3891,VALID,0.107441,VALID,20.1108,VALID,132,VALID,0,
2014-10-01, 02:35:04,VALID,916.585,VALID,0,VALID,97.3891,VALID,0,VALID,20.1108,VALID,132,VALID,0,
2014-10-01, 02:36:04,VALID,916.579,VALID,0,VALID,97.3968,VALID,0,VALID,20.0913,VALID,132,VALID,0,
2014-10-01, 02:37:04,VALID,916.617,VALID,0,VALID,97.3891,VALID,0.107441,VALID,20.0913,VALID,132,VALID,0,
2014-10-01, 02:38:04,VALID,916.62,VALID,0,VALID,97.3968,VALID,0.107441,VALID,20.0913,VALID,132,VALID,0,
2014-10-01, 02:39:04,VALID,916.61,VALID,0,VALID,97.3968,VALID,0,VALID,20.0928,VALID,132,VALID,0,
2014-10-01, 02:40:04,VALID,916.621,VALID,0,VALID,97.3891,VALID,0,VALID,20.0523,VALID,132,VALID,0,
2014-10-01, 02:41:04,VALID,916.605,VALID,0,VALID,97.3968,VALID,0,VALID,20.0733,VALID,132,VALID,0,
2014-10-01, 02:42:04,VALID,916.641,VALID,0,VALID,97.412,VALID,0.107441,VALID,20.0328,VALID,132,VALID,0,
2014-10-01, 02:43:04,VALID,916.628,VALID,0,VALID,97.3968,VALID,0,VALID,20.0523,VALID,132,VALID,0,
2014-10-01, 02:44:04,VALID,916.609,VALID,0,VALID,97.4044,VALID,0,VALID,20.0328,VALID,132,VALID,0,
2014-10-01, 02:45:04,VALID,916.59,VALID,0,VALID,97.3968,VALID,0,VALID,20.0343,VALID,132,VALID,0,
2014-10-01, 02:46:04,VALID,916.609,VALID,0,VALID,97.4044,VALID,0,VALID,20.0523,VALID,132,VALID,0,
2014-10-01, 02:47:04,VALID,916.587,VALID,0,VALID,97.3891,VALID,0,VALID,20.0733,VALID,132,VALID,0,
2014-10-01, 02:48:04,VALID,916.587,VALID,0,VALID,97.3815,VALID,0,VALID,20.0343,VALID,132,VALID,0,
2014-10-01, 02:49:04,VALID,916.582,VALID,0,VALID,97.412,VALID,0,VALID,20.0148,VALID,132,VALID,0,
2014-10-01, 02:50:04,VALID,916.61,VALID,0,VALID,97.4349,VALID,0,VALID,19.9953,VALID,132,VALID,0,
2014-10-01, 02:51:04,VALID,916.613,VALID,0,VALID,97.412,VALID,0,VALID,19.9368,VALID,132,VALID,0,
2014-10-01, 02:52:04,VALID,916.619,VALID,0,VALID,97.4349,VALID,0,VALID,19.8978,VALID,132,VALID,0,
2014-10-01, 02:53:04,VALID,916.601,VALID,0,VALID,97.412,VALID,0,VALID,19.9158,VALID,118,VALID,0,
2014-10-01, 02:54:04,VALID,916.615,VALID,0,VALID,97.4273,VALID,0.107441,VALID,19.9353,VALID,118,VALID,0,
2014-10-01, 02:55:04,VALID,916.583,VALID,0,VALID,97.4425,VALID,0,VALID,19.8963,VALID,118,VALID,0,
2014-10-01, 02:56:04,VALID,916.556,VALID,0,VALID,97.4196,VALID,0,VALID,19.9158,VALID,118,VALID,0,
2014-10-01, 02:57:04,VALID,916.531,VALID,0,VALID,97.4425,VALID,0.107441,VALID,19.9368,VALID,118,VALID,0,
2014-10-01, 02:58:04,VALID,916.542,VALID,0,VALID,97.4196,VALID,0,VALID,19.9158,VALID,118,VALID,0,
2014-10-01, 02:59:04,VALID,916.549,VALID,0,VALID,97.4196,VALID,0,VALID,19.9563,VALID,118,VALID,0,
2014-10-01, 03:00:04,VALID,916.533,VALID,0,VALID,97.412,VALID,0,VALID,19.9173,VALID,118,VALID,0,
2014-10-01, 03:01:04,VALID,916.525,VALID,0,VALID,97.4273,VALID,0,VALID,19.9368,VALID,118,VALID,0,
2014-10-01, 03:02:04,VALID,916.497,VALID,0,VALID,97.4196,VALID,0,VALID,19.9563,VALID,118,VALID,0,
2014-10-01, 03:03:04,VALID,916.515,VALID,0,VALID,97.4196,VALID,0.107441,VALID,19.9548,VALID,118,VALID,0,
2014-10-01, 03:04:04,VALID,916.492,VALID,0,VALID,97.4044,VALID,0,VALID,19.9758,VALID,118,VALID,0,
2014-10-01, 03:05:04,VALID,916.526,VALID,0,VALID,97.4273,VALID,0,VALID,19.9563,VALID,118,VALID,0,
2014-10-01, 03:06:04,VALID,916.503,VALID,0,VALID,97.4273,VALID,0,VALID,19.9158,VALID,118,VALID,0,
2014-10-01, 03:07:04,VALID,916.556,VALID,0,VALID,97.4501,VALID,0,VALID,19.8768,VALID,118,VALID,0,
2014-10-01, 03:08:04,VALID,916.53,VALID,0,VALID,97.4577,VALID,0,VALID,19.8783,VALID,118,VALID,0,
2014-10-01, 03:09:04,VALID,916.608,VALID,0,VALID,97.4273,VALID,0,VALID,19.8978,VALID,118,VALID,0,
2014-10-01, 03:10:04,VALID,916.574,VALID,0,VALID,97.4349,VALID,0,VALID,19.8393,VALID,118,VALID,0,
2014-10-01, 03:11:04,VALID,916.581,VALID,0,VALID,97.4501,VALID,0,VALID,19.8783,VALID,118,VALID,0,
2014-10-01, 03:12:04,VALID,916.617,VALID,0,VALID,97.4349,VALID,0.107441,VALID,19.8378,VALID,118,VALID,0,
2014-10-01, 03:13:04,VALID,916.613,VALID,0,VALID,97.4425,VALID,0,VALID,19.8378,VALID,118,VALID,0,
2014-10-01, 03:14:04,VALID,916.618,VALID,0,VALID,97.4273,VALID,0.107441,VALID,19.8783,VALID,122,VALID,0.234375,
2014-10-01, 03:15:04,VALID,916.612,VALID,0,VALID,97.4349,VALID,0,VALID,19.8978,VALID,118,VALID,0,
2014-10-01, 03:16:04,VALID,916.614,VALID,0,VALID,97.4349,VALID,0,VALID,19.8768,VALID,118,VALID,0,
2014-10-01, 03:17:04,VALID,916.613,VALID,0,VALID,97.4501,VALID,0.107441,VALID,19.8573,VALID,118,VALID,0,
2014-10-01, 03:18:04,VALID,916.624,VALID,0,VALID,97.4273,VALID,0,VALID,19.8588,VALID,118,VALID,0,
2014-10-01, 03:19:04,VALID,916.593,VALID,0,VALID,97.4273,VALID,0.107441,VALID,19.8573,VALID,118,VALID,0,
2014-10-01, 03:20:04,VALID,916.6,VALID,0,VALID,97.4425,VALID,0,VALID,19.8588,VALID,118,VALID,0,
2014-10-01, 03:21:04,VALID,916.561,VALID,0,VALID,97.4425,VALID,0,VALID,19.8588,VALID,118,VALID,0,
2014-10-01, 03:22:04,VALID,916.576,VALID,0,VALID,97.4425,VALID,0,VALID,19.8573,VALID,118,VALID,0,
2014-10-01, 03:23:04,VALID,916.569,VALID,0,VALID,97.4425,VALID,0.107441,VALID,19.8978,VALID,118,VALID,0,
2014-10-01, 03:24:04,VALID,916.592,VALID,0,VALID,97.4425,VALID,0.107441,VALID,19.8963,VALID,118,VALID,0,
2014-10-01, 03:25:04,VALID,916.588,VALID,0,VALID,97.4425,VALID,0,VALID,19.9173,VALID,120,VALID,0,
2014-10-01, 03:26:04,VALID,916.572,VALID,0,VALID,97.4501,VALID,0,VALID,19.9173,VALID,124,VALID,0,
2014-10-01, 03:27:04,VALID,916.562,VALID,0,VALID,97.4349,VALID,0,VALID,19.9173,VALID,112,VALID,0,
2014-10-01, 03:28:04,VALID,916.58,VALID,0,VALID,97.4501,VALID,0,VALID,19.9173,VALID,110,VALID,0,
2014-10-01, 03:29:04,VALID,916.581,VALID,0,VALID,97.4273,VALID,0,VALID,19.8978,VALID,108,VALID,0,
2014-10-01, 03:30:04,VALID,916.593,VALID,0,VALID,97.4501,VALID,0,VALID,19.8978,VALID,108,VALID,0,
2014-10-01, 03:31:04,VALID,916.548,VALID,0,VALID,97.4501,VALID,0,VALID,19.8978,VALID,108,VALID,0,
2014-10-01, 03:32:04,VALID,916.537,VALID,0,VALID,97.4501,VALID,0,VALID,19.8978,VALID,113,VALID,0,
2014-10-01, 03:33:04,VALID,916.537,VALID,0,VALID,97.4425,VALID,0,VALID,19.8783,VALID,117,VALID,0,
2014-10-01, 03:34:04,VALID,916.526,VALID,0,VALID,97.4577,VALID,0.107441,VALID,19.8783,VALID,116,VALID,0,
2014-10-01, 03:35:04,VALID,916.527,VALID,0,VALID,97.4425,VALID,0,VALID,19.8393,VALID,113,VALID,0,
2014-10-01, 03:36:04,VALID,916.521,VALID,0,VALID,97.473,VALID,0,VALID,19.8393,VALID,113,VALID,0,
2014-10-01, 03:37:04,VALID,916.502,VALID,0,VALID,97.4577,VALID,0,VALID,19.8198,VALID,106,VALID,0,
2014-10-01, 03:38:04,VALID,916.481,VALID,0,VALID,97.4577,VALID,0,VALID,19.8003,VALID,105,VALID,0,
2014-10-01, 03:39:04,VALID,916.478,VALID,0,VALID,97.473,VALID,0,VALID,19.7613,VALID,101,VALID,0,
2014-10-01, 03:40:04,VALID,916.474,VALID,0,VALID,97.473,VALID,0.107441,VALID,19.7628,VALID,101,VALID,0,
2014-10-01, 03:41:04,VALID,916.464,VALID,0,VALID,97.4806,VALID,0,VALID,19.7223,VALID,106,VALID,0,
2014-10-01, 03:42:04,VALID,916.467,VALID,0,VALID,97.4806,VALID,0,VALID,19.7223,VALID,111,VALID,0,
2014-10-01, 03:43:04,VALID,916.451,VALID,0,VALID,97.4959,VALID,0,VALID,19.7223,VALID,129,VALID,0,
2014-10-01, 03:44:04,VALID,916.49,VALID,0,VALID,97.4882,VALID,0,VALID,19.7028,VALID,113,VALID,0,
2014-10-01, 03:45:04,VALID,916.455,VALID,0,VALID,97.4806,VALID,0,VALID,19.7028,VALID,110,VALID,0,
2014-10-01, 03:46:04,VALID,916.485,VALID,0,VALID,97.4501,VALID,0.107441,VALID,19.7223,VALID,119,VALID,0,
2014-10-01, 03:47:04,VALID,916.488,VALID,0,VALID,97.473,VALID,0,VALID,19.7223,VALID,106,VALID,0,
2014-10-01, 03:48:04,VALID,916.498,VALID,0,VALID,97.4882,VALID,0,VALID,19.7433,VALID,119,VALID,0,
2014-10-01, 03:49:04,VALID,916.482,VALID,0,VALID,97.4806,VALID,0,VALID,19.7628,VALID,129,VALID,0,
2014-10-01, 03:50:04,VALID,916.473,VALID,0,VALID,97.473,VALID,0,VALID,19.7628,VALID,116,VALID,0,
2014-10-01, 03:51:04,VALID,916.484,VALID,0,VALID,97.4806,VALID,0,VALID,19.7808,VALID,125,VALID,0,
2014-10-01, 03:52:04,VALID,916.453,VALID,0,VALID,97.4577,VALID,0,VALID,19.7613,VALID,128,VALID,0,
2014-10-01, 03:53:04,VALID,916.462,VALID,0,VALID,97.4806,VALID,0,VALID,19.8018,VALID,134,VALID,0.224219,
2014-10-01, 03:54:04,VALID,916.435,VALID,0,VALID,97.4654,VALID,0,VALID,19.8003,VALID,116,VALID,0.464844,
2014-10-01, 03:55:04,VALID,916.438,VALID,0,VALID,97.473,VALID,0,VALID,19.7793,VALID,143,VALID,0.339844,